Location: Strawberry
(45.6646°N, 111.9596°W)
Time: 22:32:46
(UTC+00:00)

Explorer 11/Cluster Stage 4 - Pass Details

Date: 07 October 2022
Orbit: 466 x 1248 km, 28.8° (Epoch: 28 November)

Event Time Altitude Azimuth Distance (km) Brightness Sun altitude
Rises 21:45:24 0° 252° (WSW) 4,114 11.2 28.7°
Reaches altitude 10° 21:51:14 10° 220° (SW) 3,008 11.3 28.0°
Maximum altitude 21:52:57 11° 206° (SSW) 2,889 10.9 27.8°
Drops below altitude 10° 21:54:36 10° 193° (SSW) 2,895 10.5 27.6°
Sets 21:59:47 0° 159° (SSE) 3,629 10.3 26.9°
